Newport Airport, OR

9:00 AM PDT on May 26, 2017 (GMT -0700)
Newport Municipal

Weather History for KONP - November, 2014

Change the Weather History Date:

Friday, November 28, 2014

  Actual Average Record
Temperature  
Mean Temperature 50 °F -  
Max Temperature 55 °F 51 °F 66 °F (2002)
Min Temperature 46 °F 41 °F 32 °F (2004)
Degree Days  
Heating Degree Days 14    
Moisture  
Dew Point 50 °F    
Average Humidity 93    
Maximum Humidity 100    
Minimum Humidity 76    
Precipitation  
Precipitation 0.47 in - - ()
Sea Level Pressure  
Sea Level Pressure 29.67 in    
Wind  
Wind Speed 20 mph (SW)    
Max Wind Speed 29 mph    
Max Gust Speed 44 mph    
Visibility 4 miles    
Events Rain    
Averages and records for this station are not official NWS values.
T = Trace of Precipitation, MM = Missing Value Source: NWS Daily Summary

Daily Weather History Graph

Daily Weather History Graph

Search for Another Location

Airport or City:

Trip Planner

Search our weather history database for the weather conditions in past years. The results will help you decide how hot, cold, wet, or windy it might be!

Date:

Astronomy

Nov. 28, 2014 Rise Set
Actual Time 7:29 AM PST 4:38 PM PST
Civil Twilight 6:56 AM PST 5:11 PM PST
Nautical Twilight 6:20 AM PST 5:47 PM PST
Astronomical Twilight 5:45 AM PST 6:22 PM PST
Moon 12:18 PM PST (11/28) 11:43 PM PST (11/28)
Length of Visible Light 10h 14m
Length of Day
9h 09m
Waxing Crescent, 43% of the Moon is Illuminated
Nov 28
Waxing Crescent
Nov 29
First Quarter
Dec 6
Full
Dec 14
Last Quarter
Dec 21
New

Hourly Weather History & Observations

Time (PST) Temp. Windchill Dew Point Humidity Pressure Visibility Wind Dir Wind Speed Gust Speed Precip Events Conditions
12:15 AM 53.6 °F - 51.8 °F 94% 29.83 in 5.0 mi South 18.4 mph 26.5 mph N/A   Drizzle
12:35 AM 53.6 °F - 51.8 °F 94% 29.83 in 4.0 mi South 17.3 mph 21.9 mph 0.01 in Rain Rain
12:55 AM 53.6 °F - 51.8 °F 94% - 4.0 mi South 13.8 mph 20.7 mph 0.02 in   Drizzle
1:15 AM 53.6 °F - 51.8 °F 94% 29.81 in 5.0 mi South 12.7 mph - N/A   Drizzle
1:35 AM 53.6 °F - 51.8 °F 94% 29.80 in 4.0 mi South 13.8 mph - 0.01 in Rain Heavy Rain
1:55 AM 53.6 °F - 51.8 °F 94% 29.80 in 4.0 mi South 15.0 mph 20.7 mph 0.02 in Rain Rain
2:15 AM 53.6 °F - 53.6 °F 100% 29.80 in 3.0 mi SSW 15.0 mph - 0.01 in Rain Heavy Rain
2:35 AM 55.4 °F - 53.6 °F 94% 29.80 in 2.0 mi SSW 25.3 mph 32.2 mph 0.03 in Rain Rain
2:55 AM 55.4 °F - 53.6 °F 94% 29.79 in 2.5 mi SSW 23.0 mph 31.1 mph 0.03 in Rain Light Rain
3:15 AM 55.4 °F - 53.6 °F 94% 29.78 in 2.5 mi SSW 24.2 mph 29.9 mph 0.01 in Rain Light Rain
3:35 AM 55.4 °F - 53.6 °F 94% 29.77 in 2.5 mi SSW 24.2 mph 35.7 mph 0.01 in Rain Light Rain
3:55 AM 55.4 °F - 53.6 °F 94% 29.76 in 2.5 mi SSW 24.2 mph 31.1 mph 0.02 in Rain Light Rain
4:15 AM 55.4 °F - 53.6 °F 94% 29.75 in 2.5 mi SSW 23.0 mph 31.1 mph N/A Rain Light Rain
4:35 AM 55.4 °F - 53.6 °F 94% 29.75 in 3.0 mi SSW 20.7 mph 27.6 mph 0.01 in Rain Rain
4:55 AM 55.4 °F - 53.6 °F 94% 29.74 in 2.5 mi SSW 24.2 mph 36.8 mph 0.01 in Rain Rain
5:15 AM 55.4 °F - 53.6 °F 94% 29.73 in 2.0 mi SSW 21.9 mph 29.9 mph 0.01 in Rain Rain
5:35 AM 55.4 °F - 53.6 °F 94% 29.71 in 3.0 mi SSW 25.3 mph 34.5 mph 0.02 in Rain Light Rain
5:55 AM 55.4 °F - 53.6 °F 94% 29.71 in 3.0 mi SSW 28.8 mph 41.4 mph 0.02 in Rain Light Rain
6:15 AM 55.4 °F - 53.6 °F 94% 29.70 in 2.5 mi SSW 27.6 mph 34.5 mph N/A Rain Light Rain
6:35 AM 53.6 °F - 53.6 °F 100% 29.70 in 2.5 mi SSW 24.2 mph 38.0 mph 0.02 in Rain Rain
6:55 AM 53.6 °F - 53.6 °F 100% 29.69 in 3.0 mi South 26.5 mph 42.6 mph 0.02 in Rain Light Rain
7:15 AM 53.6 °F - 53.6 °F 100% 29.68 in 4.0 mi South 23.0 mph 35.7 mph N/A Rain Light Rain
7:35 AM 53.6 °F - 53.6 °F 100% 29.68 in 3.0 mi South 28.8 mph 43.7 mph N/A Rain Light Rain
7:55 AM 53.6 °F - 53.6 °F 100% 29.67 in 2.0 mi South 27.6 mph 41.4 mph 0.01 in Rain Light Rain
8:15 AM 55.4 °F - 53.6 °F 94% 29.66 in 4.0 mi SSW 24.2 mph 38.0 mph N/A Rain Light Rain
8:35 AM 55.4 °F - 53.6 °F 94% 29.66 in 5.0 mi South 19.6 mph 25.3 mph N/A   Mostly Cloudy
8:55 AM 55.4 °F - 53.6 °F 94% 29.66 in 4.0 mi South 20.7 mph 29.9 mph N/A Rain Light Rain
9:15 AM 55.4 °F - 53.6 °F 94% 29.65 in 3.0 mi SSW 25.3 mph 32.2 mph 0.01 in Rain Light Rain
9:35 AM 55.4 °F - 53.6 °F 94% 29.64 in 7.0 mi South 19.6 mph 32.2 mph 0.01 in   Mostly Cloudy
9:55 AM 55.4 °F - 53.6 °F 94% 29.65 in 5.0 mi South 19.6 mph 33.4 mph 0.01 in   Mostly Cloudy
10:15 AM 53.6 °F - 53.6 °F 100% 29.65 in 2.5 mi SSW 23.0 mph 31.1 mph N/A Rain Light Rain
10:35 AM 53.6 °F - 53.6 °F 100% 29.64 in 3.0 mi South 21.9 mph 25.3 mph N/A Rain Rain
10:55 AM 55.4 °F - 53.6 °F 94% 29.64 in 3.0 mi South 23.0 mph 29.9 mph N/A Rain Light Rain
11:15 AM 55.4 °F - 53.6 °F 94% 29.62 in 3.0 mi SSW 20.7 mph 29.9 mph 0.01 in Rain Rain
11:35 AM 55.4 °F - 55.4 °F 100% 29.61 in 2.5 mi SSW 19.6 mph 28.8 mph 0.07 in Rain Light Rain
11:55 AM 55.4 °F - 55.4 °F 100% 29.60 in 2.0 mi SSW 26.5 mph 34.5 mph 0.08 in Rain Rain
12:15 PM 55.4 °F - 53.6 °F 94% 29.60 in 4.0 mi South 25.3 mph 34.5 mph N/A   Mostly Cloudy
12:35 PM 55.4 °F - 55.4 °F 100% 29.58 in 2.0 mi SSW 21.9 mph 28.8 mph 0.01 in Rain Rain
12:55 PM 55.4 °F - 55.4 °F 100% 29.59 in 3.0 mi SSW 26.5 mph 36.8 mph 0.01 in   Overcast
1:15 PM 55.4 °F - 55.4 °F 100% 29.59 in 4.0 mi SW 24.2 mph 31.1 mph N/A   Overcast
1:35 PM 55.4 °F - 53.6 °F 94% 29.60 in 5.0 mi SW 21.9 mph 31.1 mph N/A   Mostly Cloudy
1:55 PM 55.4 °F - 53.6 °F 94% 29.60 in 3.0 mi SW 26.5 mph 33.4 mph N/A Rain Light Rain
2:15 PM 55.4 °F - 53.6 °F 94% 29.60 in 5.0 mi SW 21.9 mph 34.5 mph N/A   Mostly Cloudy
2:35 PM 55.4 °F - 53.6 °F 94% 29.60 in 2.5 mi SW 23.0 mph 32.2 mph N/A Rain Light Rain
2:55 PM 55.4 °F - 53.6 °F 94% 29.59 in 1.5 mi SW 21.9 mph 29.9 mph 0.05 in Rain Light Rain
3:15 PM 53.6 °F - 53.6 °F 100% 29.59 in 3.0 mi SW 21.9 mph 31.1 mph N/A Rain Rain
3:35 PM 55.4 °F - 53.6 °F 94% 29.59 in 5.0 mi SW 20.7 mph 28.8 mph N/A   Overcast
3:55 PM 55.4 °F - 53.6 °F 94% 29.59 in 5.0 mi SW 21.9 mph 31.1 mph N/A   Overcast
4:15 PM 55.4 °F - 53.6 °F 94% 29.60 in 5.0 mi WSW 16.1 mph 32.2 mph N/A   Mostly Cloudy
4:35 PM 51.8 °F - 50.0 °F 94% 29.59 in 1.8 mi NNW 17.3 mph 23.0 mph 0.06 in Rain Light Rain
4:55 PM 50.0 °F - 48.2 °F 94% 29.60 in 5.0 mi NNW 23.0 mph 27.6 mph 0.07 in Rain Rain
5:15 PM 48.2 °F - 46.4 °F 93% 29.62 in 5.0 mi NNW 16.1 mph 25.3 mph 0.03 in Rain Rain
5:35 PM 46.4 °F 40.1 °F 46.4 °F 100% 29.63 in 7.0 mi NNW 15.0 mph - 0.03 in Rain Light Rain
5:55 PM 46.4 °F 40.7 °F 46.4 °F 100% 29.64 in 3.0 mi NNW 12.7 mph 18.4 mph 0.05 in Rain Rain
6:15 PM 46.4 °F 40.4 °F 46.4 °F 100% 29.64 in 4.0 mi North 13.8 mph 19.6 mph 0.01 in Rain Rain
6:35 PM 46.4 °F 40.1 °F 44.6 °F 93% 29.64 in 4.0 mi NNW 15.0 mph 19.6 mph 0.02 in Rain Rain
6:55 PM 46.4 °F 40.1 °F 44.6 °F 93% 29.65 in 3.0 mi NNW 15.0 mph 21.9 mph 0.04 in Rain Rain
7:15 PM 46.4 °F 39.8 °F 44.6 °F 93% 29.65 in 3.0 mi NNW 16.1 mph 21.9 mph 0.01 in Rain Rain
7:35 PM 46.4 °F 41.5 °F 44.6 °F 93% 29.66 in 3.0 mi NW 10.4 mph - 0.01 in   Drizzle
7:55 PM 46.4 °F 40.7 °F 44.6 °F 93% 29.66 in 3.0 mi NNW 12.7 mph 17.3 mph 0.01 in   Drizzle
8:15 PM 46.4 °F 40.4 °F 44.6 °F 93% 29.67 in 7.0 mi NNW 13.8 mph - N/A   Light Drizzle
8:35 PM 46.4 °F 41.5 °F 42.8 °F 87% 29.67 in 10.0 mi NW 10.4 mph - N/A   Mostly Cloudy
8:55 PM 46.4 °F 42.9 °F 42.8 °F 87% 29.67 in 10.0 mi NW 6.9 mph - N/A   Mostly Cloudy
9:15 PM 48.2 °F - 41.0 °F 76% 29.67 in 10.0 mi NW 11.5 mph - N/A   Overcast
9:35 PM 48.2 °F - 41.0 °F 76% 29.68 in 10.0 mi WNW 16.1 mph 21.9 mph N/A   Overcast
9:55 PM 48.2 °F - 41.0 °F 76% 29.68 in 10.0 mi NW 16.1 mph 20.7 mph N/A   Overcast
10:15 PM 46.4 °F 41.1 °F 41.0 °F 81% 29.69 in 10.0 mi WNW 11.5 mph 20.7 mph N/A   Mostly Cloudy
10:35 PM 46.4 °F 40.7 °F 39.2 °F 76% 29.69 in 10.0 mi WNW 12.7 mph 17.3 mph N/A   Mostly Cloudy
10:55 PM 46.4 °F 40.7 °F 41.0 °F 81% 29.69 in 10.0 mi NW 12.7 mph 19.6 mph N/A   Mostly Cloudy
11:15 PM 46.4 °F 39.5 °F 39.2 °F 76% 29.70 in 10.0 mi WNW 17.3 mph 24.2 mph N/A   Mostly Cloudy
11:35 PM 46.4 °F 40.1 °F 41.0 °F 81% 29.71 in 10.0 mi NW 15.0 mph 20.7 mph N/A   Mostly Cloudy
11:55 PM 46.4 °F 41.5 °F 41.0 °F 81% 29.71 in 10.0 mi NW 10.4 mph - N/A   Mostly Cloudy